sat.trackr.live / text

‹ back to catalog

ONEWEB-0397

NORAD 50477 · 2021-132J

PAYLOAD ACTIVE UNKNOWN

§ Identity

Operator
Country
UK
Launch date
2021-12-27
Launch site
TYMSC
Launch vehicle
Mass (kg)
RCS (m²)

Purposes: comms

External: N2YO · Heavens-Above · Gunter

§ Orbital elements

Epoch: 2026-05-24T23:08:27.712032Z

Period
109.20 min
Inclination
87.9169°
Eccentricity
0.0002056
Mean motion
13.18687915 rev/d
Perigee alt
1,188.2 km
Apogee alt
1,191.3 km
Semi-major
7,567.9 km
B*
1.8979e-5
RAAN
340.0759°
Arg perigee
85.3261°
Mean anomaly
274.8106°
Rev number
21,855

§ Raw data

ONEWEB-03971 50477U 21132J   26144.96420963  .00000020  00000+0  18979-4 0  99972 50477  87.9169 340.0759 0002056  85.3261 274.8106 13.18687915218559

JSON: /api/v1/satellites/50477 · /tle

For live sub-satellite position, see the globe view (requires WebGL).

§ Visibility from observer

Set your observer location to see the next 7 days of passes ≥ 10°. The values pass through the URL so the page stays shareable.

No JS? Fill the form by hand. The geolocation button needs JavaScript.